******** Week 365 almanac for PRN-1 ******** ID: 1 Health: 0 Eccentricity: 0.00168466568 Time of Applicability(s): 233472 Orbital Inclination(rad): 0.9577636749 Rate of Right Ascen(r/s): -8.114623721e-09 SQRT(A) (m 1/2): 5153.567383 Right Ascen at Week(rad): 2.51012025 Argument of Perigee(rad): 0.1537995504 Mean Anom(rad): 1.824783249 Af0(s): 0.0002389147583 Af1(s/s): -7.275958e-12 week: 365 ******** Week 365 almanac for PRN-2 ******** ID: 2 Health: 0 Eccentricity: 0.01683187485 Time of Applicability(s): 233472 Orbital Inclination(rad): 0.9628629626 Rate of Right Ascen(r/s): -8.023191341e-09 SQRT(A) (m 1/2): 5153.527832 Right Ascen at Week(rad): 2.347732879 Argument of Perigee(rad): -0.7907629769 Mean Anom(rad): -2.939154753 Af0(s): 5.878659668e-05 Af1(s/s): 7.275958e-12 week: 365 ******** Week 365 almanac for PRN-3 ******** ID: 3 Health: 0 Eccentricity: 0.006652832031 Time of Applicability(s): 233472 Orbital Inclination(rad): 0.9940279395 Rate of Right Ascen(r/s): -7.543171346e-09 SQRT(A) (m 1/2): 5153.569824 Right Ascen at Week(rad): -2.785106905 Argument of Perigee(rad): 1.207135397 Mean Anom(rad): -0.2441130438 Af0(s): 0.0004047231079 Af1(s/s): -1.455192e-11 week: 365 ******** Week 365 almanac for PRN-4 ******** ID: 4 Health: 0 Eccentricity: 0.003732204437 Time of Applicability(s): 233472 Orbital Inclination(rad): 0.9706826694 Rate of Right Ascen(r/s): -7.657461821e-09 SQRT(A) (m 1/2): 5153.669434 Right Ascen at Week(rad): -1.71537514 Argument of Perigee(rad): -2.869527904 Mean Anom(rad): 2.709185716 Af0(s): 4.14520874e-05 Af1(s/s): 0 week: 365 ******** Week 365 almanac for PRN-5 ******** ID: 5 Health: 0 Eccentricity: 0.005476951599 Time of Applicability(s): 233472 Orbital Inclination(rad): 0.9805456865 Rate of Right Ascen(r/s): -7.680319916e-09 SQRT(A) (m 1/2): 5153.682617 Right Ascen at Week(rad): -2.845291682 Argument of Perigee(rad): 1.420093576 Mean Anom(rad): -2.9037174 Af0(s): -0.0001831428589 Af1(s/s): 0 week: 365 ******** Week 365 almanac for PRN-6 ******** ID: 6 Health: 0 Eccentricity: 0.003800392151 Time of Applicability(s): 233472 Orbital Inclination(rad): 0.9865797437 Rate of Right Ascen(r/s): -7.840326581e-09 SQRT(A) (m 1/2): 5153.611816 Right Ascen at Week(rad): 2.4616523 Argument of Perigee(rad): -0.5357057142 Mean Anom(rad): 1.042611089 Af0(s): -0.0004831052368 Af1(s/s): 0 week: 365 ******** Week 365 almanac for PRN-7 ******** ID: 7 Health: 0 Eccentricity: 0.0206990242 Time of Applicability(s): 233472 Orbital Inclination(rad): 0.9509626273 Rate of Right Ascen(r/s): -7.897471818e-09 SQRT(A) (m 1/2): 5153.552246 Right Ascen at Week(rad): -0.7066303475 Argument of Perigee(rad): -1.980463948 Mean Anom(rad): 0.2074832604 Af0(s): -0.0001349077026 Af1(s/s): -3.637979e-12 week: 365 ******** Week 365 almanac for PRN-8 ******** ID: 8 Health: 0 Eccentricity: 0.01159954071 Time of Applicability(s): 233472 Orbital Inclination(rad): 0.9429212124 Rate of Right Ascen(r/s): -8.034620388e-09 SQRT(A) (m 1/2): 5153.651367 Right Ascen at Week(rad): 1.33946371 Argument of Perigee(rad): 0.5342589935 Mean Anom(rad): 3.018464107 Af0(s): 0.0003677930664 Af1(s/s): -7.275958e-12 week: 365 ******** Week 365 almanac for PRN-9 ******** ID: 9 Health: 0 Eccentricity: 0.003343582153 Time of Applicability(s): 233472 Orbital Inclination(rad): 0.9649122651 Rate of Right Ascen(r/s): -7.714607058e-09 SQRT(A) (m 1/2): 5153.708008 Right Ascen at Week(rad): -1.779881354 Argument of Perigee(rad): 2.05770415 Mean Anom(rad): -2.670637708 Af0(s): 0.0006021857788 Af1(s/s): -3.637979e-12 week: 365 ******** Week 365 almanac for PRN-10 ******** ID: 10 Health: 0 Eccentricity: 0.01093292236 Time of Applicability(s): 233472 Orbital Inclination(rad): 0.9935545626 Rate of Right Ascen(r/s): -7.543171346e-09 SQRT(A) (m 1/2): 5153.611328 Right Ascen at Week(rad): -2.787614604 Argument of Perigee(rad): -2.256954997 Mean Anom(rad): -1.236692615 Af0(s): -0.0004665244019 Af1(s/s): 0 week: 365 ******** Week 365 almanac for PRN-11 ******** ID: 11 Health: 0 Eccentricity: 0.002209186554 Time of Applicability(s): 233472 Orbital Inclination(rad): 0.9634621739 Rate of Right Ascen(r/s): -8.068907531e-09 SQRT(A) (m 1/2): 5153.541992 Right Ascen at Week(rad): 2.479651482 Argument of Perigee(rad): -2.324550145 Mean Anom(rad): 2.197619602 Af0(s): -0.0003007160522 Af1(s/s): 1.455192e-11 week: 365 ******** Week 365 almanac for PRN-12 ******** ID: 12 Health: 0 Eccentricity: 0.008927345276 Time of Applicability(s): 233472 Orbital Inclination(rad): 0.9593995216 Rate of Right Ascen(r/s): -7.691748963e-09 SQRT(A) (m 1/2): 5153.703613 Right Ascen at Week(rad): 0.4110484282 Argument of Perigee(rad): 1.570490355 Mean Anom(rad): -0.4887541425 Af0(s): -0.0004808442139 Af1(s/s): 0 week: 365 ******** Week 365 almanac for PRN-13 ******** ID: 13 Health: 0 Eccentricity: 0.01009273529 Time of Applicability(s): 233472 Orbital Inclination(rad): 0.9762073971 Rate of Right Ascen(r/s): -7.646032773e-09 SQRT(A) (m 1/2): 5153.623047 Right Ascen at Week(rad): -1.604260028 Argument of Perigee(rad): 0.99412666 Mean Anom(rad): 2.787770399 Af0(s): 0.0005381234619 Af1(s/s): 0 week: 365 ******** Week 365 almanac for PRN-14 ******** ID: 14 Health: 0 Eccentricity: 0.00691318512 Time of Applicability(s): 233472 Orbital Inclination(rad): 0.9427474411 Rate of Right Ascen(r/s): -7.886042771e-09 SQRT(A) (m 1/2): 5153.602051 Right Ascen at Week(rad): 0.3558655666 Argument of Perigee(rad): -2.731990198 Mean Anom(rad): -0.6256465731 Af0(s): 0.0005863586182 Af1(s/s): 0 week: 365 ******** Week 365 almanac for PRN-15 ******** ID: 15 Health: 0 Eccentricity: 0.01664066315 Time of Applicability(s): 233472 Orbital Inclination(rad): 0.9429272045 Rate of Right Ascen(r/s): -7.943188008e-09 SQRT(A) (m 1/2): 5153.658691 Right Ascen at Week(rad): -1.924827184 Argument of Perigee(rad): 1.508403457 Mean Anom(rad): 2.0227589 Af0(s): 0.0003172968872 Af1(s/s): 3.637979e-12 week: 365 ******** Week 365 almanac for PRN-16 ******** ID: 16 Health: 0 Eccentricity: 0.01501560211 Time of Applicability(s): 233472 Orbital Inclination(rad): 0.9585066969 Rate of Right Ascen(r/s): -7.691748963e-09 SQRT(A) (m 1/2): 5153.615234 Right Ascen at Week(rad): 0.4279585441 Argument of Perigee(rad): 0.93202553 Mean Anom(rad): -2.222209359 Af0(s): 0.0001899259277 Af1(s/s): 7.275958e-12 week: 365 ******** Week 365 almanac for PRN-17 ******** ID: 17 Health: 0 Eccentricity: 0.01261615753 Time of Applicability(s): 233472 Orbital Inclination(rad): 0.9585306653 Rate of Right Ascen(r/s): -7.886042771e-09 SQRT(A) (m 1/2): 5153.56543 Right Ascen at Week(rad): 1.44476123 Argument of Perigee(rad): -1.115050111 Mean Anom(rad): 2.974362159 Af0(s): -8.441152344e-05 Af1(s/s): -1.091394e-11 week: 365 ******** Week 365 almanac for PRN-18 ******** ID: 18 Health: 0 Eccentricity: 0.005826473236 Time of Applicability(s): 233472 Orbital Inclination(rad): 0.9715395415 Rate of Right Ascen(r/s): -7.977475151e-09 SQRT(A) (m 1/2): 5153.584473 Right Ascen at Week(rad): 2.456107723 Argument of Perigee(rad): -2.871702292 Mean Anom(rad): 0.9922402681 Af0(s): -0.0003022234009 Af1(s/s): 1.091394e-11 week: 365 ******** Week 365 almanac for PRN-19 ******** ID: 19 Health: 0 Eccentricity: 0.01128768921 Time of Applicability(s): 233472 Orbital Inclination(rad): 0.9576857775 Rate of Right Ascen(r/s): -7.886042771e-09 SQRT(A) (m 1/2): 5153.681641 Right Ascen at Week(rad): 1.488642968 Argument of Perigee(rad): 2.948528664 Mean Anom(rad): -1.535128278 Af0(s): 0.000550182251 Af1(s/s): 0 week: 365 ******** Week 365 almanac for PRN-20 ******** ID: 20 Health: 0 Eccentricity: 0.002229690552 Time of Applicability(s): 233472 Orbital Inclination(rad): 0.9603043306 Rate of Right Ascen(r/s): -7.794610391e-09 SQRT(A) (m 1/2): 5153.708984 Right Ascen at Week(rad): -1.774447632 Argument of Perigee(rad): -1.935924202 Mean Anom(rad): -0.5588176664 Af0(s): 7.536743164e-05 Af1(s/s): 1.818989e-11 week: 365 ******** Week 365 almanac for PRN-21 ******** ID: 21 Health: 0 Eccentricity: 0.0008206367493 Time of Applicability(s): 233472 Orbital Inclination(rad): 0.9634322133 Rate of Right Ascen(r/s): -7.840326581e-09 SQRT(A) (m 1/2): 5153.73877 Right Ascen at Week(rad): -2.779941329 Argument of Perigee(rad): -0.2146389662 Mean Anom(rad): -0.8873131359 Af0(s): 0.0003270946533 Af1(s/s): 0 week: 365 ******** Week 365 almanac for PRN-22 ******** ID: 22 Health: 0 Eccentricity: 0.01202630997 Time of Applicability(s): 233472 Orbital Inclination(rad): 0.9579554225 Rate of Right Ascen(r/s): -7.714607058e-09 SQRT(A) (m 1/2): 5153.572266 Right Ascen at Week(rad): 0.4313171231 Argument of Perigee(rad): -0.9926271338 Mean Anom(rad): -2.661430453 Af0(s): -1.733450928e-05 Af1(s/s): 7.275958e-12 week: 365 ******** Week 365 almanac for PRN-23 ******** ID: 23 Health: 0 Eccentricity: 0.00609588623 Time of Applicability(s): 233472 Orbital Inclination(rad): 0.9885391645 Rate of Right Ascen(r/s): -7.600316584e-09 SQRT(A) (m 1/2): 5153.668945 Right Ascen at Week(rad): -2.819857412 Argument of Perigee(rad): -2.740449938 Mean Anom(rad): -0.1666870862 Af0(s): 0.0005004397461 Af1(s/s): 3.637979e-12 week: 365 ******** Week 365 almanac for PRN-24 ******** ID: 24 Health: 0 Eccentricity: 0.01797819138 Time of Applicability(s): 233472 Orbital Inclination(rad): 0.9349157502 Rate of Right Ascen(r/s): -8.103194673e-09 SQRT(A) (m 1/2): 5153.580566 Right Ascen at Week(rad): -0.8157819189 Argument of Perigee(rad): 1.140411352 Mean Anom(rad): 1.189341819 Af0(s): -3.69300415e-05 Af1(s/s): 1.818989e-11 week: 365 ******** Week 365 almanac for PRN-25 ******** ID: 25 Health: 0 Eccentricity: 0.01289558411 Time of Applicability(s): 233472 Orbital Inclination(rad): 0.9477868077 Rate of Right Ascen(r/s): -7.828897533e-09 SQRT(A) (m 1/2): 5153.65625 Right Ascen at Week(rad): 0.3168610341 Argument of Perigee(rad): 1.159486868 Mean Anom(rad): -0.6027192529 Af0(s): 0.0003414144653 Af1(s/s): -3.637979e-12 week: 365 ******** Week 365 almanac for PRN-26 ******** ID: 26 Health: 0 Eccentricity: 0.01102876663 Time of Applicability(s): 233472 Orbital Inclination(rad): 0.9285521267 Rate of Right Ascen(r/s): -8.023191341e-09 SQRT(A) (m 1/2): 5153.677734 Right Ascen at Week(rad): 0.2416952264 Argument of Perigee(rad): 0.7120498387 Mean Anom(rad): -1.425364013 Af0(s): -0.0002773521484 Af1(s/s): -3.637979e-12 week: 365 ******** Week 365 almanac for PRN-27 ******** ID: 27 Health: 0 Eccentricity: 0.01437664032 Time of Applicability(s): 233472 Orbital Inclination(rad): 0.9519992628 Rate of Right Ascen(r/s): -7.943188008e-09 SQRT(A) (m 1/2): 5153.620117 Right Ascen at Week(rad): 1.371816249 Argument of Perigee(rad): 0.8908926741 Mean Anom(rad): 3.126347223 Af0(s): -7.687478027e-05 Af1(s/s): -1.455192e-11 week: 365 ******** Week 365 almanac for PRN-28 ******** ID: 28 Health: 0 Eccentricity: 0.000385761261 Time of Applicability(s): 233472 Orbital Inclination(rad): 0.9618742641 Rate of Right Ascen(r/s): -7.817468486e-09 SQRT(A) (m 1/2): 5153.505859 Right Ascen at Week(rad): -0.7319732381 Argument of Perigee(rad): -0.3305017036 Mean Anom(rad): 0.8546291585 Af0(s): -0.000443160498 Af1(s/s): 7.275958e-12 week: 365 ******** Week 365 almanac for PRN-29 ******** ID: 29 Health: 0 Eccentricity: 0.003468036652 Time of Applicability(s): 233472 Orbital Inclination(rad): 0.9611851712 Rate of Right Ascen(r/s): -7.874613723e-09 SQRT(A) (m 1/2): 5153.693359 Right Ascen at Week(rad): 1.461594198 Argument of Perigee(rad): 2.754722775 Mean Anom(rad): 2.965099102 Af0(s): -0.0002720764282 Af1(s/s): 7.275958e-12 week: 365 ******** Week 365 almanac for PRN-30 ******** ID: 30 Health: 0 Eccentricity: 0.008178710937 Time of Applicability(s): 233472 Orbital Inclination(rad): 0.9362220307 Rate of Right Ascen(r/s): -8.080336578e-09 SQRT(A) (m 1/2): 5153.675781 Right Ascen at Week(rad): -0.7161499416 Argument of Perigee(rad): -2.295029629 Mean Anom(rad): -0.006560614124 Af0(s): 0.0001416907715 Af1(s/s): 1.455192e-11 week: 365 ******** Week 365 almanac for PRN-31 ******** ID: 31 Health: 0 Eccentricity: 0.01082420349 Time of Applicability(s): 233472 Orbital Inclination(rad): 0.9547256739 Rate of Right Ascen(r/s): -7.886042771e-09 SQRT(A) (m 1/2): 5153.525391 Right Ascen at Week(rad): -0.682253685 Argument of Perigee(rad): 0.9426244534 Mean Anom(rad): -0.8754393905 Af0(s): -0.0001236025879 Af1(s/s): 3.637979e-12 week: 365 ******** Week 365 almanac for PRN-32 ******** ID: 32 Health: 0 Eccentricity: 0.009395122528 Time of Applicability(s): 233472 Orbital Inclination(rad): 0.9679262977 Rate of Right Ascen(r/s): -7.691748963e-09 SQRT(A) (m 1/2): 5153.697754 Right Ascen at Week(rad): -1.762753275 Argument of Perigee(rad): -1.984628466 Mean Anom(rad): -2.603800188 Af0(s): -7.536743164e-06 Af1(s/s): 1.818989e-11 week: 365